SAUDISAT 1C (SO-50)

Last updated on Wed Sep 23 2026 00:03:47 GMT+0000 (Coordinated Universal Time)

1 27607U 02058C 26265.18448791 .00000558 00000+0 83642-4 0 9994 2 27607 64.5525 188.8355 0071556 244.6308 114.7378 14.83222800278840
UTC large
Height (km)
Speed (km/s)
/
Latitude / Longitude
Inclination (degrees)
Orbital Period (minutes)
Azimuth
Elevation
Range (km)
Doppler Factor

Next 0 passes for location: London (51.5072 / 0.1276)

No passes found over London.
SAUDISAT 1C (SO-50)